| time (UTC) | temp C | wind direction | speed KPH | gust KPH | rain 1hr cm | rain 24hr cm | rain mn cm | humidity % | barometer mb |
| 20260906140427 | 22 | 170 | 4.8 | 4.8 | 0.00 | 0.00 | 0.00 | 79 | 1021.7 |
| 20260906135925 | 21 | 88 | 1.6 | 1.6 | 0.00 | 0.00 | 0.00 | 81 | 1021.9 |
| 20260906135424 | 21 | 91 | 3.2 | 3.2 | 0.00 | 0.00 | 0.00 | 80 | 1021.7 |
| 20260906134920 | 21 | 79 | 0.0 | 1.6 | 0.00 | 0.00 | 0.00 | 81 | 1021.9 |
| 20260906134415 | 21 | 82 | 0.0 | 1.6 | 0.00 | 0.00 | 0.00 | 82 | 1021.8 |
| 20260906133910 | 21 | 78 | 1.6 | 1.6 | 0.00 | 0.00 | 0.00 | 82 | 1021.7 |
| 20260906133406 | 21 | 78 | 3.2 | 3.2 | 0.00 | 0.00 | 0.00 | 82 | 1021.9 |
| 20260906132901 | 21 | 75 | 0.0 | 0.0 | 0.00 | 0.00 | 0.00 | 83 | 1021.7 |
| 20260906132356 | 21 | 79 | 0.0 | 0.0 | 0.00 | 0.00 | 0.00 | 84 | 1021.7 |
| 20260906131852 | 21 | 72 | 0.0 | 0.0 | 0.00 | 0.00 | 0.00 | 85 | 1021.6 |
| 20260906131347 | 21 | 95 | 1.6 | 1.6 | 0.00 | 0.00 | 0.00 | 85 | 1021.4 |
| 20260906130843 | 20 | 63 | 0.0 | 0.0 | 0.00 | 0.00 | 0.00 | 86 | 1021.6 |
| 20260906130342 | 20 | 147 | 4.8 | 4.8 | 0.00 | 0.00 | 0.00 | 85 | 1021.3 |
| 20260906125841 | 20 | 86 | 0.0 | 0.0 | 0.00 | 0.00 | 0.00 | 87 | 1021.0 |
| 20260906125338 | 20 | 88 | 0.0 | 0.0 | 0.00 | 0.00 | 0.00 | 87 | 1021.1 |
| 20260906124833 | 20 | 82 | 0.0 | 0.0 | 0.00 | 0.00 | 0.00 | 89 | 1021.2 |
| 20260906124330 | 19 | 67 | 1.6 | 3.2 | 0.00 | 0.00 | 0.00 | 92 | 1021.2 |
| 20260906123829 | 18 | 74 | 0.0 | 0.0 | 0.00 | 0.00 | 0.00 | 95 | 1021.1 |
| 20260906123324 | 18 | 78 | 0.0 | 0.0 | 0.00 | 0.00 | 0.00 | 96 | 1021.1 |
| 20260906122823 | 18 | 74 | 0.0 | 0.0 | 0.00 | 0.00 | 0.00 | 97 | 1021.1 |
| 20260906122318 | 18 | 74 | 0.0 | 0.0 | 0.00 | 0.00 | 0.00 | 97 | 1021.2 |
| 20260906121815 | 18 | 73 | 0.0 | 0.0 | 0.00 | 0.00 | 0.00 | 97 | 1021.0 |
| 20260906121311 | 18 | 70 | 0.0 | 0.0 | 0.00 | 0.00 | 0.00 | 97 | 1021.1 |
| 20260906120806 | 18 | 65 | 0.0 | 0.0 | 0.00 | 0.00 | 0.00 | 97 | 1020.9 |
| 20260906120257 | 18 | 69 | 0.0 | 0.0 | 0.00 | 0.00 | 0.00 | 97 | 1020.9 |
| 20260906115753 | 17 | 69 | 0.0 | 0.0 | 0.00 | 0.00 | 0.00 | 97 | 1020.7 |
| 20260906115242 | 17 | 69 | 0.0 | 0.0 | 0.00 | 0.00 | 0.00 | 97 | 1020.5 |
| 20260906114741 | 17 | 69 | 0.0 | 0.0 | 0.00 | 0.00 | 0.00 | 97 | 1020.7 |
| 20260906114237 | 17 | 69 | 0.0 | 0.0 | 0.00 | 0.00 | 0.00 | 97 | 1020.5 |
| 20260906113731 | 17 | 69 | 0.0 | 0.0 | 0.00 | 0.00 | 0.00 | 96 | 1020.6 |
| 20260906113230 | 17 | 72 | 0.0 | 0.0 | 0.00 | 0.00 | 0.00 | 96 | 1020.5 |
| 20260906112725 | 17 | 70 | 0.0 | 0.0 | 0.00 | 0.00 | 0.00 | 96 | 1020.3 |
| 20260906112222 | 17 | 74 | 0.0 | 0.0 | 0.00 | 0.00 | 0.00 | 96 | 1020.3 |
| 20260906111721 | 18 | 61 | 0.0 | 0.0 | 0.00 | 0.00 | 0.00 | 96 | 1020.5 |
| 20260906111216 | 18 | 68 | 0.0 | 0.0 | 0.00 | 0.00 | 0.00 | 96 | 1020.2 |
| 20260906110711 | 18 | 67 | 0.0 | 0.0 | 0.00 | 0.00 | 0.00 | 96 | 1020.0 |
| 20260906110206 | 18 | 74 | 0.0 | 0.0 | 0.00 | 0.00 | 0.00 | 96 | 1020.0 |
| 20260906105700 | 18 | 75 | 0.0 | 0.0 | 0.00 | 0.00 | 0.00 | 96 | 1020.1 |
| 20260906105156 | 18 | 65 | 0.0 | 0.0 | 0.00 | 0.00 | 0.00 | 96 | 1020.2 |
| 20260906104655 | 18 | 74 | 0.0 | 0.0 | 0.00 | 0.00 | 0.00 | 96 | 1020.0 |
| 20260906104149 | 18 | 75 | 0.0 | 0.0 | 0.00 | 0.00 | 0.00 | 96 | 1019.9 |
| 20260906103647 | 18 | 75 | 0.0 | 0.0 | 0.00 | 0.00 | 0.00 | 96 | 1020.2 |
| 20260906103142 | 18 | 73 | 0.0 | 0.0 | 0.00 | 0.00 | 0.00 | 96 | 1020.4 |
| 20260906102637 | 18 | 72 | 0.0 | 0.0 | 0.00 | 0.00 | 0.00 | 96 | 1020.2 |
| 20260906102131 | 18 | 76 | 0.0 | 0.0 | 0.00 | 0.00 | 0.00 | 96 | 1020.1 |
| 20260906101626 | 18 | 64 | 0.0 | 0.0 | 0.00 | 0.00 | 0.00 | 96 | 1020.1 |
| 20260906101126 | 18 | 73 | 0.0 | 0.0 | 0.00 | 0.00 | 0.00 | 96 | 1020.0 |
| 20260906100622 | 18 | 69 | 0.0 | 0.0 | 0.00 | 0.00 | 0.00 | 96 | 1020.3 |
| 20260906100122 | 18 | 68 | 0.0 | 0.0 | 0.00 | 0.00 | 0.00 | 96 | 1020.2 |
| 20260906095616 | 18 | 62 | 0.0 | 0.0 | 0.00 | 0.00 | 0.00 | 96 | 1020.0 |
| 20260906095112 | 18 | 62 | 0.0 | 0.0 | 0.00 | 0.00 | 0.00 | 96 | 1020.1 |
| 20260906094611 | 18 | 75 | 0.0 | 0.0 | 0.00 | 0.00 | 0.00 | 95 | 1020.0 |
| 20260906094107 | 18 | 67 | 0.0 | 0.0 | 0.00 | 0.00 | 0.00 | 95 | 1019.6 |
| 20260906093603 | 18 | 65 | 0.0 | 0.0 | 0.00 | 0.00 | 0.00 | 95 | 1019.7 |
| 20260906093057 | 18 | 70 | 0.0 | 0.0 | 0.00 | 0.00 | 0.00 | 95 | 1019.6 |
| 20260906092553 | 18 | 74 | 0.0 | 0.0 | 0.00 | 0.00 | 0.00 | 95 | 1019.6 |
| 20260906092047 | 18 | 42 | 0.0 | 1.6 | 0.00 | 0.00 | 0.00 | 94 | 1019.5 |
| 20260906091543 | 18 | 73 | 0.0 | 0.0 | 0.00 | 0.00 | 0.00 | 94 | 1019.7 |
| 20260906091040 | 18 | 58 | 0.0 | 0.0 | 0.00 | 0.00 | 0.00 | 94 | 1019.9 |
| 20260906090539 | 18 | 70 | 0.0 | 0.0 | 0.00 | 0.00 | 0.00 | 94 | 1019.9 |
| 20260906090034 | 18 | 71 | 0.0 | 0.0 | 0.00 | 0.00 | 0.00 | 94 | 1019.9 |
| 20260906085533 | 18 | 73 | 0.0 | 0.0 | 0.00 | 0.00 | 0.00 | 94 | 1020.0 |
| 20260906085033 | 18 | 64 | 1.6 | 1.6 | 0.00 | 0.00 | 0.00 | 95 | 1019.9 |
| 20260906084528 | 18 | 70 | 0.0 | 0.0 | 0.00 | 0.00 | 0.00 | 95 | 1019.9 |
| 20260906084026 | 18 | 72 | 0.0 | 0.0 | 0.00 | 0.00 | 0.00 | 95 | 1019.6 |
| 20260906083522 | 18 | 43 | 0.0 | 0.0 | 0.00 | 0.00 | 0.00 | 95 | 1019.9 |
| 20260906083022 | 18 | 39 | 1.6 | 1.6 | 0.00 | 0.00 | 0.00 | 95 | 1019.5 |
| 20260906082517 | 18 | 70 | 0.0 | 0.0 | 0.00 | 0.00 | 0.00 | 95 | 1019.6 |
| 20260906082013 | 18 | 61 | 0.0 | 0.0 | 0.00 | 0.00 | 0.00 | 95 | 1019.6 |
| 20260906081508 | 18 | 64 | 0.0 | 0.0 | 0.00 | 0.00 | 0.00 | 95 | 1019.6 |
| 20260906081004 | 18 | 72 | 0.0 | 0.0 | 0.00 | 0.00 | 0.00 | 95 | 1019.6 |
| 20260906080500 | 18 | 70 | 0.0 | 0.0 | 0.00 | 0.00 | 0.00 | 95 | 1019.6 |
| 20260906075955 | 18 | 70 | 0.0 | 0.0 | 0.00 | 0.00 | 0.00 | 94 | 1019.5 |
| 20260906075450 | 18 | 72 | 0.0 | 0.0 | 0.00 | 0.00 | 0.00 | 94 | 1019.4 |
| 20260906074945 | 18 | 72 | 0.0 | 0.0 | 0.00 | 0.00 | 0.00 | 94 | 1019.6 |
| 20260906074439 | 18 | 61 | 0.0 | 0.0 | 0.00 | 0.00 | 0.00 | 94 | 1019.4 |
| 20260906073937 | 18 | 34 | 3.2 | 3.2 | 0.00 | 0.00 | 0.00 | 94 | 1019.4 |
| 20260906073433 | 18 | 50 | 1.6 | 1.6 | 0.00 | 0.00 | 0.00 | 94 | 1019.6 |
| 20260906072929 | 18 | 44 | 0.0 | 0.0 | 0.00 | 0.00 | 0.00 | 94 | 1019.4 |
| 20260906072424 | 18 | 63 | 1.6 | 1.6 | 0.00 | 0.00 | 0.00 | 94 | 1019.2 |
| 20260906071920 | 18 | 70 | 0.0 | 0.0 | 0.00 | 0.00 | 0.00 | 94 | 1019.4 |
| 20260906071416 | 18 | 71 | 0.0 | 0.0 | 0.00 | 0.00 | 0.00 | 95 | 1019.4 |
| 20260906070912 | 18 | 66 | 1.6 | 1.6 | 0.00 | 0.00 | 0.00 | 95 | 1019.4 |
| 20260906070407 | 18 | 32 | 0.0 | 0.0 | 0.00 | 0.00 | 0.00 | 95 | 1019.2 |
| 20260906065902 | 18 | 55 | 1.6 | 1.6 | 0.00 | 0.00 | 0.00 | 95 | 1019.3 |
| 20260906065356 | 18 | 74 | 0.0 | 0.0 | 0.00 | 0.00 | 0.00 | 95 | 1019.4 |
| 20260906064852 | 18 | 60 | 1.6 | 3.2 | 0.00 | 0.00 | 0.00 | 96 | 1019.6 |
| 20260906064343 | 18 | 71 | 0.0 | 0.0 | 0.00 | 0.00 | 0.00 | 96 | 1019.5 |
| 20260906063842 | 18 | 74 | 0.0 | 0.0 | 0.00 | 0.00 | 0.00 | 96 | 1019.3 |
| 20260906063338 | 18 | 71 | 0.0 | 0.0 | 0.00 | 0.00 | 0.00 | 96 | 1019.6 |
| 20260906062833 | 18 | 73 | 0.0 | 0.0 | 0.00 | 0.00 | 0.00 | 96 | 1019.5 |
| 20260906062332 | 18 | 38 | 0.0 | 1.6 | 0.00 | 0.00 | 0.00 | 96 | 1019.5 |
| 20260906061828 | 18 | 59 | 0.0 | 1.6 | 0.00 | 0.00 | 0.00 | 96 | 1019.5 |
| 20260906061324 | 18 | 76 | 0.0 | 0.0 | 0.00 | 0.00 | 0.00 | 96 | 1019.4 |
| 20260906060819 | 18 | 74 | 0.0 | 0.0 | 0.00 | 0.00 | 0.00 | 96 | 1019.4 |
| 20260906060317 | 18 | 68 | 0.0 | 0.0 | 0.00 | 0.00 | 0.00 | 96 | 1019.5 |
| 20260906055812 | 18 | 62 | 0.0 | 1.6 | 0.00 | 0.00 | 0.00 | 96 | 1019.2 |
| 20260906055307 | 18 | 60 | 1.6 | 1.6 | 0.00 | 0.00 | 0.00 | 97 | 1019.1 |
| 20260906054802 | 18 | 63 | 1.6 | 1.6 | 0.00 | 0.00 | 0.00 | 97 | 1019.2 |
| 20260906054258 | 18 | 42 | 1.6 | 3.2 | 0.00 | 0.00 | 0.00 | 97 | 1019.4 |
| 20260906053754 | 18 | 53 | 0.0 | 0.0 | 0.00 | 0.00 | 0.00 | 97 | 1019.3 |
| 20260906053250 | 18 | 64 | 0.0 | 0.0 | 0.00 | 0.00 | 0.00 | 96 | 1019.2 |
| 20260906052744 | 18 | 73 | 0.0 | 0.0 | 0.00 | 0.00 | 0.00 | 96 | 1019.5 |
| 20260906052240 | 18 | 72 | 0.0 | 0.0 | 0.00 | 0.00 | 0.00 | 96 | 1019.2 |
| 20260906051738 | 18 | 74 | 0.0 | 0.0 | 0.00 | 0.00 | 0.00 | 96 | 1019.3 |
| 20260906051237 | 18 | 67 | 0.0 | 1.6 | 0.00 | 0.00 | 0.00 | 96 | 1019.1 |
| 20260906050732 | 18 | 73 | 0.0 | 0.0 | 0.00 | 0.00 | 0.00 | 96 | 1019.1 |
| 20260906050228 | 18 | 50 | 0.0 | 1.6 | 0.00 | 0.00 | 0.00 | 96 | 1019.0 |
| 20260906045726 | 18 | 54 | 1.6 | 1.6 | 0.00 | 0.00 | 0.00 | 96 | 1019.3 |
| 20260906045221 | 18 | 68 | 0.0 | 0.0 | 0.00 | 0.00 | 0.00 | 96 | 1019.1 |
| 20260906044717 | 19 | 71 | 0.0 | 0.0 | 0.00 | 0.00 | 0.00 | 96 | 1019.2 |
| 20260906044212 | 19 | 61 | 1.6 | 1.6 | 0.00 | 0.00 | 0.00 | 95 | 1019.1 |
| 20260906043708 | 19 | 70 | 1.6 | 3.2 | 0.00 | 0.00 | 0.00 | 95 | 1018.8 |
| 20260906043204 | 19 | 63 | 0.0 | 0.0 | 0.00 | 0.00 | 0.00 | 95 | 1018.7 |
| 20260906042703 | 19 | 70 | 0.0 | 0.0 | 0.00 | 0.00 | 0.00 | 95 | 1018.7 |
| 20260906042157 | 19 | 57 | 1.6 | 1.6 | 0.00 | 0.00 | 0.00 | 95 | 1018.7 |
| 20260906041653 | 19 | 84 | 1.6 | 3.2 | 0.00 | 0.00 | 0.00 | 95 | 1018.7 |
| 20260906041148 | 19 | 81 | 0.0 | 1.6 | 0.00 | 0.00 | 0.00 | 94 | 1018.8 |
| 20260906040643 | 19 | 32 | 3.2 | 3.2 | 0.00 | 0.00 | 0.00 | 94 | 1018.8 |
| 20260906040139 | 19 | 71 | 0.0 | 0.0 | 0.00 | 0.00 | 0.00 | 94 | 1018.7 |
| 20260906035633 | 19 | 50 | 1.6 | 1.6 | 0.00 | 0.00 | 0.00 | 94 | 1018.6 |
| 20260906035129 | 19 | 49 | 3.2 | 3.2 | 0.00 | 0.00 | 0.00 | 93 | 1018.7 |
| 20260906034624 | 19 | 83 | 1.6 | 1.6 | 0.00 | 0.00 | 0.00 | 93 | 1018.8 |
| 20260906034118 | 20 | 74 | 0.0 | 0.0 | 0.00 | 0.00 | 0.00 | 93 | 1018.7 |
| 20260906033614 | 20 | 54 | 1.6 | 1.6 | 0.00 | 0.00 | 0.00 | 93 | 1018.7 |
| 20260906033109 | 20 | 62 | 0.0 | 0.0 | 0.00 | 0.00 | 0.00 | 92 | 1018.9 |
| 20260906032606 | 20 | 61 | 1.6 | 1.6 | 0.00 | 0.00 | 0.00 | 93 | 1018.6 |
| 20260906032105 | 20 | 56 | 3.2 | 3.2 | 0.00 | 0.00 | 0.00 | 93 | 1018.8 |
| 20260906031601 | 20 | 24 | 4.8 | 4.8 | 0.00 | 0.00 | 0.00 | 92 | 1018.7 |
| 20260906031057 | 20 | 52 | 1.6 | 1.6 | 0.00 | 0.00 | 0.00 | 92 | 1018.7 |
| 20260906030555 | 20 | 14 | 3.2 | 4.8 | 0.00 | 0.00 | 0.00 | 92 | 1018.5 |
| 20260906030049 | 20 | 56 | 1.6 | 3.2 | 0.00 | 0.00 | 0.00 | 92 | 1018.7 |
| 20260906025544 | 20 | 38 | 4.8 | 4.8 | 0.00 | 0.00 | 0.00 | 92 | 1018.7 |
| 20260906025043 | 20 | 75 | 0.0 | 1.6 | 0.00 | 0.00 | 0.00 | 92 | 1018.6 |
| 20260906024538 | 20 | 54 | 4.8 | 8.0 | 0.00 | 0.00 | 0.00 | 92 | 1018.5 |
| 20260906024037 | 20 | 62 | 4.8 | 4.8 | 0.00 | 0.00 | 0.00 | 92 | 1018.7 |
| 20260906023534 | 20 | 57 | 6.4 | 9.7 | 0.00 | 0.00 | 0.00 | 92 | 1018.4 |
| 20260906023028 | 20 | 59 | 1.6 | 3.2 | 0.00 | 0.00 | 0.00 | 91 | 1018.5 |
| 20260906022524 | 20 | 58 | 3.2 | 4.8 | 0.00 | 0.00 | 0.00 | 91 | 1018.4 |
| 20260906022019 | 20 | 40 | 3.2 | 3.2 | 0.00 | 0.00 | 0.00 | 91 | 1018.5 |
| 20260906021515 | 20 | 63 | 1.6 | 1.6 | 0.00 | 0.00 | 0.00 | 91 | 1018.4 |
| 20260906021009 | 20 | 50 | 1.6 | 1.6 | 0.00 | 0.00 | 0.00 | 91 | 1018.3 |
| 20260906020508 | 20 | 53 | 4.8 | 4.8 | 0.00 | 0.00 | 0.00 | 91 | 1018.3 |
| 20260906020007 | 20 | 63 | 1.6 | 1.6 | 0.00 | 0.00 | 0.00 | 91 | 1018.6 |
| 20260906015501 | 20 | 52 | 3.2 | 4.8 | 0.00 | 0.00 | 0.00 | 90 | 1018.4 |
| 20260906015001 | 20 | 64 | 1.6 | 3.2 | 0.00 | 0.00 | 0.00 | 90 | 1018.3 |
| 20260906014456 | 20 | 69 | 1.6 | 1.6 | 0.00 | 0.00 | 0.00 | 90 | 1018.5 |
| 20260906013952 | 20 | 56 | 1.6 | 1.6 | 0.00 | 0.00 | 0.00 | 90 | 1018.7 |
| 20260906013447 | 20 | 38 | 1.6 | 1.6 | 0.00 | 0.00 | 0.00 | 89 | 1018.5 |
| 20260906012943 | 20 | 64 | 1.6 | 1.6 | 0.00 | 0.00 | 0.00 | 90 | 1018.5 |
| 20260906012437 | 20 | 7 | 1.6 | 3.2 | 0.00 | 0.00 | 0.00 | 90 | 1018.6 |
| 20260906011936 | 20 | 66 | 1.6 | 1.6 | 0.00 | 0.00 | 0.00 | 90 | 1018.5 |
| 20260906011432 | 20 | 43 | 3.2 | 3.2 | 0.00 | 0.00 | 0.00 | 89 | 1018.3 |
| 20260906010927 | 21 | 26 | 4.8 | 4.8 | 0.00 | 0.00 | 0.00 | 89 | 1018.5 |
| 20260906010422 | 21 | 76 | 0.0 | 0.0 | 0.00 | 0.00 | 0.00 | 89 | 1018.5 |
| 20260906005919 | 21 | 333 | 4.8 | 4.8 | 0.00 | 0.00 | 0.00 | 88 | 1018.6 |
| 20260906005418 | 21 | 77 | 1.6 | 3.2 | 0.00 | 0.00 | 0.00 | 87 | 1018.5 |
| 20260906004916 | 21 | 58 | 1.6 | 3.2 | 0.00 | 0.00 | 0.00 | 87 | 1018.3 |
| 20260906004411 | 21 | 41 | 4.8 | 4.8 | 0.00 | 0.00 | 0.00 | 87 | 1018.5 |
| 20260906003907 | 21 | 64 | 4.8 | 9.7 | 0.00 | 0.00 | 0.00 | 87 | 1018.4 |
| 20260906003402 | 21 | 73 | 3.2 | 4.8 | 0.00 | 0.00 | 0.00 | 88 | 1018.4 |
| 20260906002857 | 21 | 352 | 4.8 | 4.8 | 0.00 | 0.00 | 0.00 | 88 | 1018.4 |
| 20260906002356 | 21 | 37 | 1.6 | 1.6 | 0.00 | 0.00 | 0.00 | 88 | 1018.3 |
| 20260906001852 | 21 | 90 | 4.8 | 8.0 | 0.00 | 0.00 | 0.00 | 89 | 1018.2 |
| 20260906001348 | 21 | 62 | 3.2 | 3.2 | 0.00 | 0.00 | 0.00 | 89 | 1018.2 |
| 20260906000843 | 21 | 65 | 1.6 | 1.6 | 0.00 | 0.00 | 0.00 | 90 | 1018.2 |
| 20260906000342 | 21 | 61 | 4.8 | 8.0 | 0.00 | 0.00 | 0.00 | 91 | 1018.2 |
| 20260905235837 | 21 | 66 | 1.6 | 1.6 | 0.00 | 0.00 | 0.00 | 91 | 1018.3 |
| 20260905235332 | 21 | 9 | 6.4 | 9.7 | 0.00 | 0.00 | 0.00 | 91 | 1018.6 |
| 20260905234827 | 21 | 41 | 1.6 | 3.2 | 0.00 | 0.00 | 0.00 | 91 | 1018.3 |
| 20260905234322 | 21 | 69 | 0.0 | 1.6 | 0.00 | 0.00 | 0.00 | 91 | 1018.3 |
| 20260905233817 | 21 | 28 | 0.0 | 3.2 | 0.00 | 0.00 | 0.00 | 91 | 1018.3 |
| 20260905233312 | 21 | 25 | 3.2 | 4.8 | 0.00 | 0.00 | 0.00 | 92 | 1018.5 |
| 20260905232811 | 21 | 57 | 3.2 | 3.2 | 0.00 | 0.00 | 0.00 | 92 | 1018.3 |
| 20260905232308 | 21 | 59 | 4.8 | 4.8 | 0.00 | 0.00 | 0.00 | 92 | 1018.4 |
| 20260905231803 | 21 | 16 | 4.8 | 4.8 | 0.00 | 0.00 | 0.00 | 92 | 1018.4 |
| 20260905231258 | 21 | 53 | 1.6 | 1.6 | 0.00 | 0.00 | 0.00 | 92 | 1018.5 |
| 20260905230754 | 21 | 44 | 4.8 | 8.0 | 0.00 | 0.00 | 0.00 | 92 | 1018.5 |
| 20260905230252 | 21 | 42 | 1.6 | 1.6 | 0.00 | 0.00 | 0.00 | 92 | 1018.3 |
| 20260905225752 | 21 | 51 | 4.8 | 4.8 | 0.00 | 0.00 | 0.00 | 92 | 1018.3 |
| 20260905225247 | 21 | 70 | 3.2 | 4.8 | 0.00 | 0.00 | 0.00 | 92 | 1018.6 |
| 20260905224746 | 21 | 33 | 3.2 | 3.2 | 0.00 | 0.00 | 0.00 | 91 | 1018.5 |
| 20260905224242 | 21 | 349 | 4.8 | 8.0 | 0.00 | 0.00 | 0.00 | 90 | 1018.7 |
| 20260905223737 | 21 | 81 | 1.6 | 3.2 | 0.00 | 0.00 | 0.00 | 90 | 1018.6 |
| 20260905223234 | 21 | 79 | 4.8 | 8.0 | 0.00 | 0.00 | 0.00 | 90 | 1018.4 |
| 20260905222730 | 21 | 90 | 0.0 | 1.6 | 0.00 | 0.00 | 0.00 | 90 | 1018.3 |
| 20260905222229 | 21 | 43 | 4.8 | 8.0 | 0.00 | 0.00 | 0.00 | 90 | 1018.3 |
| 20260905221725 | 22 | 69 | 4.8 | 8.0 | 0.00 | 0.00 | 0.00 | 89 | 1018.1 |
| 20260905221222 | 22 | 55 | 4.8 | 4.8 | 0.00 | 0.00 | 0.00 | 90 | 1017.9 |
| 20260905220717 | 22 | 57 | 4.8 | 4.8 | 0.00 | 0.00 | 0.00 | 90 | 1017.9 |
| 20260905220213 | 21 | 67 | 3.2 | 3.2 | 0.00 | 0.00 | 0.00 | 90 | 1017.9 |
| 20260905215712 | 22 | 63 | 3.2 | 3.2 | 0.00 | 0.00 | 0.00 | 90 | 1017.9 |
| 20260905215208 | 22 | 67 | 3.2 | 3.2 | 0.00 | 0.00 | 0.00 | 90 | 1017.7 |
| 20260905214704 | 22 | 30 | 3.2 | 4.8 | 0.00 | 0.00 | 0.00 | 90 | 1017.8 |
| 20260905214159 | 22 | 47 | 0.0 | 1.6 | 0.00 | 0.00 | 0.00 | 90 | 1017.7 |
| 20260905213654 | 22 | 66 | 4.8 | 4.8 | 0.00 | 0.00 | 0.00 | 89 | 1017.8 |
| 20260905213150 | 22 | 58 | 4.8 | 4.8 | 0.00 | 0.00 | 0.00 | 89 | 1017.6 |
| 20260905212645 | 22 | 335 | 1.6 | 3.2 | 0.00 | 0.00 | 0.00 | 89 | 1017.6 |
| 20260905212144 | 22 | 60 | 3.2 | 4.8 | 0.00 | 0.00 | 0.00 | 88 | 1017.6 |
| 20260905211639 | 22 | 49 | 1.6 | 1.6 | 0.00 | 0.00 | 0.00 | 89 | 1017.7 |
| 20260905211134 | 22 | 41 | 0.0 | 1.6 | 0.00 | 0.00 | 0.00 | 89 | 1017.4 |
| 20260905210631 | 22 | 47 | 3.2 | 4.8 | 0.00 | 0.00 | 0.00 | 88 | 1017.4 |
| 20260905210126 | 22 | 71 | 1.6 | 1.6 | 0.00 | 0.00 | 0.00 | 88 | 1017.4 |
| 20260905205624 | 23 | 45 | 11.3 | 12.9 | 0.00 | 0.00 | 0.00 | 87 | 1017.7 |
| 20260905205119 | 23 | 85 | 6.4 | 11.3 | 0.00 | 0.00 | 0.00 | 87 | 1017.6 |
| 20260905204618 | 23 | 49 | 4.8 | 4.8 | 0.00 | 0.00 | 0.00 | 86 | 1017.6 |
| 20260905204113 | 23 | 306 | 4.8 | 8.0 | 0.00 | 0.00 | 0.00 | 87 | 1017.5 |
| 20260905203608 | 23 | 70 | 4.8 | 8.0 | 0.00 | 0.00 | 0.00 | 87 | 1017.4 |
| 20260905203103 | 23 | 68 | 4.8 | 4.8 | 0.00 | 0.00 | 0.00 | 85 | 1017.5 |
| 20260905202558 | 23 | 45 | 3.2 | 3.2 | 0.00 | 0.00 | 0.00 | 86 | 1017.4 |
| 20260905202048 | 24 | 48 | 4.8 | 8.0 | 0.00 | 0.00 | 0.00 | 85 | 1017.4 |
| 20260905201544 | 24 | 17 | 3.2 | 4.8 | 0.00 | 0.00 | 0.00 | 86 | 1017.7 |
| 20260905201043 | 24 | 46 | 4.8 | 4.8 | 0.00 | 0.00 | 0.00 | 86 | 1017.4 |
| 20260905200539 | 24 | 65 | 4.8 | 4.8 | 0.00 | 0.00 | 0.00 | 86 | 1017.4 |
| 20260905200038 | 24 | 30 | 3.2 | 3.2 | 0.00 | 0.00 | 0.00 | 86 | 1017.4 |
| 20260905195532 | 23 | 46 | 6.4 | 8.0 | 0.00 | 0.00 | 0.00 | 87 | 1017.4 |
| 20260905195028 | 23 | 50 | 1.6 | 1.6 | 0.00 | 0.00 | 0.00 | 89 | 1017.5 |
| 20260905194527 | 23 | 81 | 1.6 | 3.2 | 0.00 | 0.00 | 0.00 | 88 | 1017.6 |
| 20260905194021 | 24 | 71 | 4.8 | 8.0 | 0.00 | 0.00 | 0.00 | 88 | 1017.5 |
| 20260905193516 | 23 | 18 | 6.4 | 8.0 | 0.00 | 0.00 | 0.00 | 89 | 1017.5 |
| 20260905193011 | 24 | 49 | 6.4 | 9.7 | 0.00 | 0.00 | 0.00 | 88 | 1017.7 |
| 20260905192506 | 24 | 29 | 6.4 | 9.7 | 0.00 | 0.00 | 0.00 | 88 | 1017.6 |
| 20260905192003 | 23 | 74 | 4.8 | 4.8 | 0.00 | 0.00 | 0.00 | 89 | 1017.6 |
| 20260905191501 | 23 | 58 | 3.2 | 3.2 | 0.00 | 0.00 | 0.00 | 89 | 1017.6 |
| 20260905191001 | 23 | 98 | 3.2 | 4.8 | 0.00 | 0.00 | 0.00 | 89 | 1017.3 |
| 20260905190459 | 24 | 90 | 6.4 | 8.0 | 0.00 | 0.00 | 0.00 | 88 | 1017.4 |
| 20260905185957 | 25 | 38 | 6.4 | 11.3 | 0.00 | 0.00 | 0.00 | 86 | 1017.6 |
| 20260905185453 | 25 | 63 | 3.2 | 4.8 | 0.00 | 0.00 | 0.00 | 86 | 1017.7 |
| 20260905184951 | 25 | 43 | 4.8 | 8.0 | 0.00 | 0.00 | 0.00 | 87 | 1017.5 |
| 20260905184446 | 25 | 36 | 6.4 | 8.0 | 0.00 | 0.00 | 0.00 | 87 | 1017.5 |
| 20260905183945 | 25 | 67 | 8.0 | 11.3 | 0.00 | 0.00 | 0.00 | 86 | 1017.6 |
| 20260905183439 | 26 | 313 | 6.4 | 9.7 | 0.00 | 0.00 | 0.00 | 84 | 1017.5 |
| 20260905182935 | 25 | 78 | 1.6 | 3.2 | 0.00 | 0.00 | 0.00 | 83 | 1017.5 |
| 20260905182434 | 25 | 54 | 4.8 | 4.8 | 0.00 | 0.00 | 0.00 | 84 | 1017.3 |
| 20260905181929 | 25 | 14 | 4.8 | 4.8 | 0.00 | 0.00 | 0.00 | 84 | 1017.4 |
| 20260905181429 | 25 | 59 | 3.2 | 3.2 | 0.00 | 0.00 | 0.00 | 84 | 1017.6 |
| 20260905180929 | 25 | 39 | 4.8 | 8.0 | 0.00 | 0.00 | 0.00 | 84 | 1017.1 |
| 20260905180424 | 25 | 17 | 4.8 | 4.8 | 0.00 | 0.00 | 0.00 | 85 | 1017.5 |
| 20260905175918 | 25 | 13 | 6.4 | 9.7 | 0.00 | 0.00 | 0.00 | 84 | 1017.5 |
| 20260905175418 | 25 | 34 | 3.2 | 3.2 | 0.00 | 0.00 | 0.00 | 84 | 1017.4 |
| 20260905174913 | 25 | 46 | 8.0 | 9.7 | 0.00 | 0.00 | 0.00 | 84 | 1017.4 |
| 20260905174409 | 25 | 54 | 1.6 | 3.2 | 0.00 | 0.00 | 0.00 | 85 | 1017.4 |
| 20260905173904 | 25 | 65 | 4.8 | 4.8 | 0.00 | 0.00 | 0.00 | 84 | 1017.5 |
| 20260905173401 | 25 | 72 | 3.2 | 3.2 | 0.00 | 0.00 | 0.00 | 85 | 1017.5 |
| 20260905172855 | 25 | 23 | 0.0 | 1.6 | 0.00 | 0.00 | 0.00 | 86 | 1017.4 |
| 20260905172353 | 24 | 82 | 0.0 | 1.6 | 0.00 | 0.00 | 0.00 | 87 | 1017.6 |
| 20260905171849 | 24 | 65 | 1.6 | 3.2 | 0.00 | 0.00 | 0.00 | 87 | 1017.4 |
| 20260905171346 | 24 | 69 | 1.6 | 3.2 | 0.00 | 0.00 | 0.00 | 87 | 1017.5 |
| 20260905170842 | 24 | 28 | 0.0 | 1.6 | 0.00 | 0.00 | 0.00 | 87 | 1017.7 |
| 20260905170338 | 24 | 38 | 3.2 | 3.2 | 0.00 | 0.00 | 0.00 | 87 | 1017.6 |
| 20260905165837 | 24 | 45 | 3.2 | 4.8 | 0.00 | 0.00 | 0.00 | 87 | 1017.6 |
| 20260905165333 | 24 | 75 | 1.6 | 3.2 | 0.00 | 0.00 | 0.00 | 87 | 1017.7 |
| 20260905164832 | 25 | 74 | 4.8 | 4.8 | 0.00 | 0.00 | 0.00 | 86 | 1017.6 |
| 20260905164328 | 25 | 50 | 1.6 | 3.2 | 0.00 | 0.00 | 0.00 | 86 | 1017.8 |
| 20260905163823 | 25 | 39 | 3.2 | 3.2 | 0.00 | 0.00 | 0.00 | 86 | 1017.5 |
| 20260905163319 | 25 | 325 | 3.2 | 3.2 | 0.00 | 0.00 | 0.00 | 85 | 1017.5 |
| 20260905162815 | 24 | 43 | 1.6 | 1.6 | 0.00 | 0.00 | 0.00 | 86 | 1017.6 |
| 20260905162309 | 24 | 43 | 3.2 | 4.8 | 0.00 | 0.00 | 0.00 | 87 | 1017.4 |
| 20260905161804 | 24 | 54 | 4.8 | 8.0 | 0.00 | 0.00 | 0.00 | 87 | 1017.7 |
| 20260905161303 | 24 | 65 | 1.6 | 3.2 | 0.00 | 0.00 | 0.00 | 88 | 1017.8 |
| 20260905160801 | 23 | 9 | 4.8 | 4.8 | 0.00 | 0.00 | 0.00 | 89 | 1017.6 |
| 20260905160255 | 23 | 65 | 3.2 | 4.8 | 0.00 | 0.00 | 0.00 | 89 | 1017.5 |
| 20260905155750 | 23 | 68 | 6.4 | 8.0 | 0.00 | 0.00 | 0.00 | 88 | 1017.8 |
| 20260905155249 | 23 | 45 | 1.6 | 3.2 | 0.00 | 0.00 | 0.00 | 89 | 1017.6 |
| 20260905154743 | 23 | 46 | 1.6 | 3.2 | 0.00 | 0.00 | 0.00 | 90 | 1017.4 |
| 20260905154239 | 23 | 57 | 4.8 | 8.0 | 0.00 | 0.00 | 0.00 | 89 | 1017.6 |
| 20260905153735 | 23 | 48 | 1.6 | 3.2 | 0.00 | 0.00 | 0.00 | 89 | 1017.3 |
| 20260905153230 | 23 | 357 | 4.8 | 4.8 | 0.00 | 0.00 | 0.00 | 89 | 1017.4 |
| 20260905152725 | 23 | 41 | 3.2 | 4.8 | 0.00 | 0.00 | 0.00 | 88 | 1017.3 |
| 20260905152225 | 23 | 33 | 3.2 | 4.8 | 0.00 | 0.00 | 0.00 | 88 | 1017.4 |
| 20260905151725 | 24 | 55 | 6.4 | 8.0 | 0.00 | 0.00 | 0.00 | 87 | 1017.4 |
| 20260905151221 | 24 | 43 | 1.6 | 3.2 | 0.00 | 0.00 | 0.00 | 87 | 1017.2 |
| 20260905150721 | 24 | 58 | 4.8 | 4.8 | 0.00 | 0.00 | 0.00 | 87 | 1017.2 |
| 20260905150220 | 23 | 49 | 3.2 | 4.8 | 0.00 | 0.00 | 0.00 | 89 | 1017.2 |
| 20260905145718 | 23 | 79 | 1.6 | 1.6 | 0.00 | 0.00 | 0.00 | 89 | 1017.2 |
| 20260905145213 | 23 | 35 | 3.2 | 4.8 | 0.00 | 0.00 | 0.00 | 89 | 1017.2 |
| 20260905144712 | 23 | 86 | 0.0 | 0.0 | 0.00 | 0.00 | 0.00 | 90 | 1017.2 |
| 20260905144212 | 23 | 69 | 0.0 | 1.6 | 0.00 | 0.00 | 0.00 | 91 | 1016.8 |
| 20260905143712 | 22 | 62 | 1.6 | 3.2 | 0.00 | 0.00 | 0.00 | 92 | 1016.7 |
| 20260905143212 | 22 | 33 | 3.2 | 3.2 | 0.00 | 0.00 | 0.00 | 92 | 1016.9 |
| 20260905142710 | 22 | 350 | 8.0 | 11.3 | 0.00 | 0.00 | 0.00 | 92 | 1016.6 |
| 20260905142205 | 22 | 7 | 1.6 | 3.2 | 0.00 | 0.00 | 0.00 | 93 | 1016.7 |
| 20260905141701 | 22 | 46 | 1.6 | 1.6 | 0.00 | 0.00 | 0.00 | 94 | 1016.8 |
| 20260905141156 | 22 | 76 | 1.6 | 3.2 | 0.00 | 0.00 | 0.00 | 94 | 1017.0 |
| 20260905140651 | 22 | 25 | 4.8 | 9.7 | 0.00 | 0.00 | 0.00 | 95 | 1016.7 |